Year,Month,Day,Hour,Minute,Value (Times are PST for windspeed in km/hr)
2021,03,29,00,00,13.10
2021,03,29,00,01,15.80
2021,03,29,00,02,11.30
2021,03,29,00,03,10.80
2021,03,29,00,04,6.40
2021,03,29,00,05,5.40
2021,03,29,00,06,6.40
2021,03,29,00,07,6.90
2021,03,29,00,08,12.40
2021,03,29,00,09,9.10
2021,03,29,00,10,7.90
2021,03,29,00,11,7.50
2021,03,29,00,12,13.40
2021,03,29,00,13,13.40
2021,03,29,00,14,12.60
2021,03,29,00,15,12.60
2021,03,29,00,16,12.20
2021,03,29,00,17,12.60
2021,03,29,00,18,13.70
2021,03,29,00,19,10.10
2021,03,29,00,20,9.00
2021,03,29,00,21,7.40
2021,03,29,00,22,3.80
2021,03,29,00,23,4.90
2021,03,29,00,24,6.00
2021,03,29,00,25,4.10
2021,03,29,00,26,5.80
2021,03,29,00,27,10.00
2021,03,29,00,28,6.80
2021,03,29,00,29,3.80
2021,03,29,00,30,5.30
2021,03,29,00,31,3.80
2021,03,29,00,32,6.60
2021,03,29,00,33,3.90
2021,03,29,00,34,4.30
2021,03,29,00,35,3.10
2021,03,29,00,36,3.20
2021,03,29,00,37,5.50
2021,03,29,00,38,3.40
2021,03,29,00,39,2.30
2021,03,29,00,40,3.20
2021,03,29,00,41,2.80
2021,03,29,00,42,2.40
2021,03,29,00,43,0.10
2021,03,29,00,44,0.00
2021,03,29,00,45,2.00
2021,03,29,00,46,2.40
2021,03,29,00,47,0.20
2021,03,29,00,48,0.70
2021,03,29,00,49,1.20
2021,03,29,00,50,0.70
2021,03,29,00,51,2.50
2021,03,29,00,52,4.80
2021,03,29,00,53,4.70
2021,03,29,00,54,5.20
2021,03,29,00,55,4.10
2021,03,29,00,56,3.10
2021,03,29,00,57,5.50
2021,03,29,00,58,3.30
2021,03,29,00,59,3.70
2021,03,29,01,00,5.20
2021,03,29,01,01,6.00
2021,03,29,01,02,3.70
2021,03,29,01,03,2.80
2021,03,29,01,04,6.10
2021,03,29,01,05,3.70
2021,03,29,01,06,4.50
2021,03,29,01,07,5.60
2021,03,29,01,08,5.40
2021,03,29,01,09,6.70
2021,03,29,01,10,9.40
2021,03,29,01,11,4.30
2021,03,29,01,12,5.90
2021,03,29,01,13,5.70
2021,03,29,01,14,4.50
2021,03,29,01,15,5.40
2021,03,29,01,16,5.70
2021,03,29,01,17,7.90
2021,03,29,01,18,6.80
2021,03,29,01,19,10.30
2021,03,29,01,20,9.30
2021,03,29,01,21,6.00
2021,03,29,01,22,6.80
2021,03,29,01,23,7.70
2021,03,29,01,24,7.10
2021,03,29,01,25,7.40
2021,03,29,01,26,7.00
2021,03,29,01,27,7.40
2021,03,29,01,28,9.50
2021,03,29,01,29,7.00
2021,03,29,01,30,7.30
2021,03,29,01,31,5.30
2021,03,29,01,32,9.80
2021,03,29,01,33,10.20
2021,03,29,01,34,11.20
2021,03,29,01,35,10.50
2021,03,29,01,36,5.50
2021,03,29,01,37,7.40
2021,03,29,01,38,8.50
2021,03,29,01,39,8.10
2021,03,29,01,40,8.20
2021,03,29,01,41,7.10
2021,03,29,01,42,10.50
2021,03,29,01,43,11.20
2021,03,29,01,44,8.20
2021,03,29,01,45,6.80
2021,03,29,01,46,7.40
2021,03,29,01,47,9.80
2021,03,29,01,48,7.30
2021,03,29,01,49,4.70
2021,03,29,01,50,7.10
2021,03,29,01,51,11.60
2021,03,29,01,52,6.00
2021,03,29,01,53,4.70
2021,03,29,01,54,5.60
2021,03,29,01,55,4.20
2021,03,29,01,56,4.40
2021,03,29,01,57,5.60
2021,03,29,01,58,7.10
2021,03,29,01,59,5.70
2021,03,29,02,00,4.40
2021,03,29,02,01,4.60
2021,03,29,02,02,4.70
2021,03,29,02,03,4.80
2021,03,29,02,04,6.40
2021,03,29,02,05,5.70
2021,03,29,02,06,6.10
2021,03,29,02,07,5.20
2021,03,29,02,08,5.30
2021,03,29,02,09,4.60
2021,03,29,02,10,7.90
2021,03,29,02,11,3.70
2021,03,29,02,12,4.10
2021,03,29,02,13,4.80
2021,03,29,02,14,3.10
2021,03,29,02,15,5.60
2021,03,29,02,16,6.10
2021,03,29,02,17,6.50
2021,03,29,02,18,5.60
2021,03,29,02,19,4.60
2021,03,29,02,20,3.30
2021,03,29,02,21,6.20
2021,03,29,02,22,8.40
2021,03,29,02,23,7.40
2021,03,29,02,24,6.70
2021,03,29,02,25,6.60
2021,03,29,02,26,6.30
2021,03,29,02,27,6.80
2021,03,29,02,28,5.10
2021,03,29,02,29,6.70
2021,03,29,02,30,6.30
2021,03,29,02,31,7.50
2021,03,29,02,32,7.80
2021,03,29,02,33,6.70
2021,03,29,02,34,7.50
2021,03,29,02,35,6.10
2021,03,29,02,36,7.20
2021,03,29,02,37,6.00
2021,03,29,02,38,7.40
2021,03,29,02,39,6.10
2021,03,29,02,40,5.50
2021,03,29,02,41,7.80
2021,03,29,02,42,4.80
2021,03,29,02,43,6.50
2021,03,29,02,44,6.10
2021,03,29,02,45,7.20
2021,03,29,02,46,6.70
2021,03,29,02,47,4.60
2021,03,29,02,48,4.60
2021,03,29,02,49,6.90
2021,03,29,02,50,5.70
2021,03,29,02,51,4.10
2021,03,29,02,52,6.00
2021,03,29,02,53,6.10
2021,03,29,02,54,6.10
2021,03,29,02,55,7.80
2021,03,29,02,56,6.50
2021,03,29,02,57,5.10
2021,03,29,02,58,4.00
2021,03,29,02,59,5.90
2021,03,29,03,00,4.70
2021,03,29,03,01,5.80
2021,03,29,03,02,5.10
2021,03,29,03,03,6.00
2021,03,29,03,04,5.80
2021,03,29,03,05,5.10
2021,03,29,03,06,5.10
2021,03,29,03,07,4.60
2021,03,29,03,08,3.90
2021,03,29,03,09,3.30
2021,03,29,03,10,4.90
2021,03,29,03,11,5.30
2021,03,29,03,12,5.50
2021,03,29,03,13,4.80
2021,03,29,03,14,4.20
2021,03,29,03,15,3.30
2021,03,29,03,16,4.10
2021,03,29,03,17,5.90
2021,03,29,03,18,4.40
2021,03,29,03,19,4.60
2021,03,29,03,20,5.50
2021,03,29,03,21,6.20
2021,03,29,03,22,6.10
2021,03,29,03,23,5.50
2021,03,29,03,24,5.10
2021,03,29,03,25,5.40
2021,03,29,03,26,6.10
2021,03,29,03,27,7.20
2021,03,29,03,28,7.60
2021,03,29,03,29,9.40
2021,03,29,03,30,9.40
2021,03,29,03,31,9.80
2021,03,29,03,32,9.10
2021,03,29,03,33,9.20
2021,03,29,03,34,8.10
2021,03,29,03,35,11.90
2021,03,29,03,36,9.40
2021,03,29,03,37,8.90
2021,03,29,03,38,7.70
2021,03,29,03,39,9.00
2021,03,29,03,40,6.10
2021,03,29,03,41,9.10
2021,03,29,03,42,6.90
2021,03,29,03,43,5.60
2021,03,29,03,44,6.40
2021,03,29,03,45,5.80
2021,03,29,03,46,7.20
2021,03,29,03,47,5.10
2021,03,29,03,48,5.20
2021,03,29,03,49,8.40
2021,03,29,03,50,9.10
2021,03,29,03,51,7.80
2021,03,29,03,52,5.80
2021,03,29,03,53,6.10
2021,03,29,03,54,6.70
2021,03,29,03,55,6.80
2021,03,29,03,56,6.70
2021,03,29,03,57,6.60
2021,03,29,03,58,7.10
2021,03,29,03,59,6.70
2021,03,29,04,00,5.80
2021,03,29,04,01,6.80
2021,03,29,04,02,6.60
2021,03,29,04,03,7.20
2021,03,29,04,04,9.40
2021,03,29,04,05,9.40
2021,03,29,04,06,7.40
2021,03,29,04,07,7.20
2021,03,29,04,08,6.50
2021,03,29,04,09,7.00
2021,03,29,04,10,8.10
2021,03,29,04,11,8.20
2021,03,29,04,12,8.30
2021,03,29,04,13,7.10
2021,03,29,04,14,5.90
2021,03,29,04,15,7.80
2021,03,29,04,16,6.20
2021,03,29,04,17,6.20
2021,03,29,04,18,8.70
2021,03,29,04,19,6.70
2021,03,29,04,20,7.40
2021,03,29,04,21,8.90
2021,03,29,04,22,7.10
2021,03,29,04,23,6.80
2021,03,29,04,24,7.10
2021,03,29,04,25,7.70
2021,03,29,04,26,7.70
2021,03,29,04,27,6.30
2021,03,29,04,28,7.70
2021,03,29,04,29,7.00
2021,03,29,04,30,6.90
2021,03,29,04,31,7.80
2021,03,29,04,32,5.70
2021,03,29,04,33,5.30
2021,03,29,04,34,8.60
2021,03,29,04,35,7.50
2021,03,29,04,36,6.70
2021,03,29,04,37,6.70
2021,03,29,04,38,5.70
2021,03,29,04,39,7.70
2021,03,29,04,40,7.60
2021,03,29,04,41,6.40
2021,03,29,04,42,7.60
2021,03,29,04,43,6.30
2021,03,29,04,44,5.70
2021,03,29,04,45,5.10
2021,03,29,04,46,9.50
2021,03,29,04,47,5.20
2021,03,29,04,48,6.50
2021,03,29,04,49,8.70
2021,03,29,04,50,6.40
2021,03,29,04,51,7.30
2021,03,29,04,52,8.40
2021,03,29,04,53,6.10
2021,03,29,04,54,7.20
2021,03,29,04,55,9.50
2021,03,29,04,56,4.70
2021,03,29,04,57,6.30
2021,03,29,04,58,6.50
2021,03,29,04,59,7.10
2021,03,29,05,00,5.70
2021,03,29,05,01,5.70
2021,03,29,05,02,6.50
2021,03,29,05,03,4.80
2021,03,29,05,04,4.00
2021,03,29,05,05,6.60
2021,03,29,05,06,5.60
2021,03,29,05,07,6.10
2021,03,29,05,08,5.90
2021,03,29,05,09,4.00
2021,03,29,05,10,4.80
2021,03,29,05,11,4.40
2021,03,29,05,12,3.30
2021,03,29,05,13,4.70
2021,03,29,05,14,4.40
2021,03,29,05,15,5.60
2021,03,29,05,16,5.10
2021,03,29,05,17,4.40
2021,03,29,05,18,5.90
2021,03,29,05,19,6.70
2021,03,29,05,20,3.70
2021,03,29,05,21,3.80
2021,03,29,05,22,1.80
2021,03,29,05,23,3.10
2021,03,29,05,24,5.20
2021,03,29,05,25,6.30
2021,03,29,05,26,7.30
2021,03,29,05,27,5.30
2021,03,29,05,28,5.20
2021,03,29,05,29,4.10
2021,03,29,05,30,5.10
2021,03,29,05,31,4.10
2021,03,29,05,32,2.70
2021,03,29,05,33,1.90
2021,03,29,05,34,2.60
2021,03,29,05,35,5.40
2021,03,29,05,36,2.60
2021,03,29,05,37,4.60
2021,03,29,05,38,2.40
2021,03,29,05,39,2.70
2021,03,29,05,40,2.30
2021,03,29,05,41,3.40
2021,03,29,05,42,2.90
2021,03,29,05,43,7.70
2021,03,29,05,44,6.20
2021,03,29,05,45,5.20
2021,03,29,05,46,4.40
2021,03,29,05,47,3.80
2021,03,29,05,48,4.20
2021,03,29,05,49,2.80
2021,03,29,05,50,4.10
2021,03,29,05,51,3.40
2021,03,29,05,52,4.50
2021,03,29,05,53,6.20
2021,03,29,05,54,6.20
2021,03,29,05,55,4.50
2021,03,29,05,56,4.80
2021,03,29,05,57,3.20
2021,03,29,05,58,4.30
2021,03,29,05,59,3.90
2021,03,29,06,00,3.40
2021,03,29,06,01,4.30
2021,03,29,06,02,5.00
2021,03,29,06,03,5.00
2021,03,29,06,04,2.50
2021,03,29,06,05,1.90
2021,03,29,06,06,4.00
2021,03,29,06,07,4.30
2021,03,29,06,08,2.80
2021,03,29,06,09,3.40
2021,03,29,06,10,5.50
2021,03,29,06,11,4.40
2021,03,29,06,12,0.50
2021,03,29,06,13,1.20
2021,03,29,06,14,3.10
2021,03,29,06,15,2.50
2021,03,29,06,16,4.70
2021,03,29,06,17,3.60
2021,03,29,06,18,4.70
2021,03,29,06,19,5.00
2021,03,29,06,20,3.80
2021,03,29,06,21,1.40
2021,03,29,06,22,2.10
2021,03,29,06,23,0.70
2021,03,29,06,24,1.40
2021,03,29,06,25,2.40
2021,03,29,06,26,1.10
2021,03,29,06,27,2.10
2021,03,29,06,28,2.60
2021,03,29,06,29,1.60
2021,03,29,06,30,2.90
2021,03,29,06,31,4.20
2021,03,29,06,32,3.50
2021,03,29,06,33,1.50
2021,03,29,06,34,3.10
2021,03,29,06,35,2.50
2021,03,29,06,36,2.70
2021,03,29,06,37,1.00
2021,03,29,06,38,3.20
2021,03,29,06,39,3.00
2021,03,29,06,40,4.40
2021,03,29,06,41,3.50
2021,03,29,06,42,2.30
2021,03,29,06,43,2.10
2021,03,29,06,44,3.00
2021,03,29,06,45,5.10
2021,03,29,06,46,5.90
2021,03,29,06,47,4.30
2021,03,29,06,48,4.50
2021,03,29,06,49,3.40
2021,03,29,06,50,3.70
2021,03,29,06,51,6.70
2021,03,29,06,52,5.30
2021,03,29,06,53,3.40
2021,03,29,06,54,2.10
2021,03,29,06,55,3.30
2021,03,29,06,56,2.80
2021,03,29,06,57,3.90
2021,03,29,06,58,4.80
2021,03,29,06,59,6.40
2021,03,29,07,00,7.90
2021,03,29,07,01,4.40
2021,03,29,07,02,3.80
2021,03,29,07,03,5.80
2021,03,29,07,04,4.40
2021,03,29,07,05,4.90
2021,03,29,07,06,5.20
2021,03,29,07,07,4.50
2021,03,29,07,08,3.00
2021,03,29,07,09,6.20
2021,03,29,07,10,2.40
2021,03,29,07,11,4.70
2021,03,29,07,12,5.90
2021,03,29,07,13,3.90
2021,03,29,07,14,3.60
2021,03,29,07,15,2.00
2021,03,29,07,16,2.60
2021,03,29,07,17,4.00
2021,03,29,07,18,4.70
2021,03,29,07,19,3.10
2021,03,29,07,20,2.60
2021,03,29,07,21,1.90
2021,03,29,07,22,0.80
2021,03,29,07,23,1.70
2021,03,29,07,24,1.50
2021,03,29,07,25,4.70
2021,03,29,07,26,1.20
2021,03,29,07,27,0.40
2021,03,29,07,28,4.10
2021,03,29,07,29,5.00
2021,03,29,07,30,4.60
2021,03,29,07,31,5.60
2021,03,29,07,32,3.10
2021,03,29,07,33,5.90
2021,03,29,07,34,6.50
2021,03,29,07,35,5.10
2021,03,29,07,36,3.70
2021,03,29,07,37,3.70
2021,03,29,07,38,5.10
2021,03,29,07,39,9.10
2021,03,29,07,40,4.40
2021,03,29,07,41,4.60
2021,03,29,07,42,5.70
2021,03,29,07,43,9.00
2021,03,29,07,44,4.70
2021,03,29,07,45,5.00
2021,03,29,07,46,4.40
2021,03,29,07,47,3.80
2021,03,29,07,48,6.40
2021,03,29,07,49,6.40
2021,03,29,07,50,6.40
2021,03,29,07,51,8.40
2021,03,29,07,52,7.40
2021,03,29,07,53,8.80
2021,03,29,07,54,7.00
2021,03,29,07,55,5.70
2021,03,29,07,56,5.00
2021,03,29,07,57,4.40
2021,03,29,07,58,6.90
2021,03,29,07,59,8.40
2021,03,29,08,00,5.80
2021,03,29,08,01,6.80
2021,03,29,08,02,4.20
2021,03,29,08,03,4.50
2021,03,29,08,04,5.60
2021,03,29,08,05,3.60
2021,03,29,08,06,3.80
2021,03,29,08,07,5.50
2021,03,29,08,08,2.50
2021,03,29,08,09,4.10
2021,03,29,08,10,3.60
2021,03,29,08,11,5.70
2021,03,29,08,12,6.30
2021,03,29,08,13,5.70
2021,03,29,08,14,4.20
2021,03,29,08,15,4.20
2021,03,29,08,16,4.50
2021,03,29,08,17,5.40
2021,03,29,08,18,3.40
2021,03,29,08,19,2.40
2021,03,29,08,20,3.40
2021,03,29,08,21,2.20
2021,03,29,08,22,1.40
2021,03,29,08,23,2.80
2021,03,29,08,24,4.10
2021,03,29,08,25,7.10
2021,03,29,08,26,3.30
2021,03,29,08,27,5.40
2021,03,29,08,28,5.40
2021,03,29,08,29,4.10
2021,03,29,08,30,5.20
2021,03,29,08,31,3.60
2021,03,29,08,32,5.80
2021,03,29,08,33,6.50
2021,03,29,08,34,6.90
2021,03,29,08,35,5.40
2021,03,29,08,36,4.40
2021,03,29,08,37,7.50
2021,03,29,08,38,6.50
2021,03,29,08,39,7.70
2021,03,29,08,40,6.70
2021,03,29,08,41,9.00
2021,03,29,08,42,8.00
2021,03,29,08,43,8.50
2021,03,29,08,44,4.90
2021,03,29,08,45,4.20
2021,03,29,08,46,4.90
2021,03,29,08,47,3.10
2021,03,29,08,48,4.50
2021,03,29,08,49,5.20
2021,03,29,08,50,6.50
2021,03,29,08,51,6.50
2021,03,29,08,52,3.60
2021,03,29,08,53,3.80
2021,03,29,08,54,5.00
2021,03,29,08,55,6.90
2021,03,29,08,56,5.40
2021,03,29,08,57,5.30
2021,03,29,08,58,5.00
2021,03,29,08,59,4.10
2021,03,29,09,00,6.00
2021,03,29,09,01,7.70
2021,03,29,09,02,9.80
2021,03,29,09,03,9.20
2021,03,29,09,04,8.30
2021,03,29,09,05,7.80
2021,03,29,09,06,3.60
2021,03,29,09,07,3.00
2021,03,29,09,08,3.40
2021,03,29,09,09,3.50
2021,03,29,09,10,2.40
2021,03,29,09,11,2.20
2021,03,29,09,12,3.70
2021,03,29,09,13,3.20
2021,03,29,09,14,2.70
2021,03,29,09,15,0.90
2021,03,29,09,16,1.00
2021,03,29,09,17,0.50
2021,03,29,09,18,0.00
2021,03,29,09,19,1.00
2021,03,29,09,20,2.10
2021,03,29,09,21,2.10
2021,03,29,09,22,2.50
2021,03,29,09,23,1.20
2021,03,29,09,24,1.50
2021,03,29,09,25,0.60
2021,03,29,09,26,0.50
2021,03,29,09,27,1.10
2021,03,29,09,28,3.60
2021,03,29,09,29,4.40
2021,03,29,09,30,2.10
2021,03,29,09,31,1.20
2021,03,29,09,32,1.20
2021,03,29,09,33,1.80
2021,03,29,09,34,6.40
2021,03,29,09,35,9.50
2021,03,29,09,36,10.40
2021,03,29,09,37,8.50
2021,03,29,09,38,6.70
2021,03,29,09,39,5.20
2021,03,29,09,40,3.20
2021,03,29,09,41,3.20
2021,03,29,09,42,6.30
2021,03,29,09,43,4.20
2021,03,29,09,44,8.20
2021,03,29,09,45,8.50
2021,03,29,09,46,5.40
2021,03,29,09,47,5.70
2021,03,29,09,48,6.60
2021,03,29,09,49,7.10
2021,03,29,09,50,4.00
2021,03,29,09,51,4.10
2021,03,29,09,52,9.20
2021,03,29,09,53,6.70
2021,03,29,09,54,3.80
2021,03,29,09,55,3.40
2021,03,29,09,56,10.90
2021,03,29,09,57,8.20
2021,03,29,09,58,7.30
2021,03,29,09,59,7.60
2021,03,29,10,00,4.60
2021,03,29,10,01,7.70
2021,03,29,10,02,9.00
2021,03,29,10,03,7.60
2021,03,29,10,04,6.80
2021,03,29,10,05,10.30
2021,03,29,10,06,7.40
2021,03,29,10,07,8.70
2021,03,29,10,08,4.10
2021,03,29,10,09,10.50
2021,03,29,10,10,10.10
2021,03,29,10,11,9.40
2021,03,29,10,12,5.90
2021,03,29,10,13,4.80
2021,03,29,10,14,3.00
2021,03,29,10,15,5.20
2021,03,29,10,16,8.10
2021,03,29,10,17,9.50
2021,03,29,10,18,7.40
2021,03,29,10,19,8.30
2021,03,29,10,20,3.40
2021,03,29,10,21,4.70
2021,03,29,10,22,11.00
2021,03,29,10,23,5.00
2021,03,29,10,24,11.20
2021,03,29,10,25,6.60
2021,03,29,10,26,7.70
2021,03,29,10,27,11.60
2021,03,29,10,28,9.70
2021,03,29,10,29,8.20
2021,03,29,10,30,4.50
2021,03,29,10,31,1.10
2021,03,29,10,32,5.10
2021,03,29,10,33,1.80
2021,03,29,10,34,4.20
2021,03,29,10,35,7.60
2021,03,29,10,36,6.80
2021,03,29,10,37,3.00
2021,03,29,10,38,1.30
2021,03,29,10,39,4.00
2021,03,29,10,40,2.30
2021,03,29,10,41,3.30
2021,03,29,10,42,1.60
2021,03,29,10,43,1.00
2021,03,29,10,44,3.60
2021,03,29,10,45,2.50
2021,03,29,10,46,1.00
2021,03,29,10,47,3.10
2021,03,29,10,48,5.00
2021,03,29,10,49,1.80
2021,03,29,10,50,4.90
2021,03,29,10,51,5.10
2021,03,29,10,52,6.00
2021,03,29,10,53,2.10
2021,03,29,10,54,3.20
2021,03,29,10,55,1.50
2021,03,29,10,56,3.90
2021,03,29,10,57,5.10
2021,03,29,10,58,2.80
2021,03,29,10,59,0.70
2021,03,29,11,00,0.20
2021,03,29,11,01,0.00
2021,03,29,11,02,0.00
2021,03,29,11,03,1.20
2021,03,29,11,04,2.40
2021,03,29,11,05,0.50
2021,03,29,11,06,0.00
2021,03,29,11,07,0.00
2021,03,29,11,08,1.20
2021,03,29,11,09,0.10
2021,03,29,11,10,0.20
2021,03,29,11,11,0.00
2021,03,29,11,12,1.50
2021,03,29,11,13,2.00
2021,03,29,11,14,2.80
2021,03,29,11,15,2.00
2021,03,29,11,16,4.20
2021,03,29,11,17,3.40
2021,03,29,11,18,1.80
2021,03,29,11,19,2.00
2021,03,29,11,20,0.00
2021,03,29,11,21,0.10
2021,03,29,11,22,0.80
2021,03,29,11,23,1.40
2021,03,29,11,24,2.60
2021,03,29,11,25,3.10
2021,03,29,11,26,0.80
2021,03,29,11,27,1.30
2021,03,29,11,28,0.60
2021,03,29,11,29,0.80
2021,03,29,11,30,1.10
2021,03,29,11,31,0.30
2021,03,29,11,32,1.80
2021,03,29,11,33,1.50
2021,03,29,11,34,1.00
2021,03,29,11,35,0.70
2021,03,29,11,36,0.70
2021,03,29,11,37,0.60
2021,03,29,11,38,1.20
2021,03,29,11,39,2.30
2021,03,29,11,40,2.70
2021,03,29,11,41,1.80
2021,03,29,11,42,4.80
2021,03,29,11,43,2.80
2021,03,29,11,44,1.00
2021,03,29,11,45,1.20
2021,03,29,11,46,0.30
2021,03,29,11,47,0.10
2021,03,29,11,48,0.80
2021,03,29,11,49,2.10
2021,03,29,11,50,1.20
2021,03,29,11,51,0.80
2021,03,29,11,52,0.80
2021,03,29,11,53,0.80
2021,03,29,11,54,1.90
2021,03,29,11,55,7.20
2021,03,29,11,56,4.00
2021,03,29,11,57,2.60
2021,03,29,11,58,6.70
2021,03,29,11,59,3.40
2021,03,29,12,00,3.40
2021,03,29,12,01,1.20
2021,03,29,12,02,1.60
2021,03,29,12,03,4.00
2021,03,29,12,04,1.50
2021,03,29,12,05,1.30
2021,03,29,12,06,1.50
2021,03,29,12,07,0.10
2021,03,29,12,08,0.80
2021,03,29,12,09,1.50
2021,03,29,12,10,1.50
2021,03,29,12,11,0.20
2021,03,29,12,12,3.10
2021,03,29,12,13,1.90
2021,03,29,12,14,4.30
2021,03,29,12,15,4.60
2021,03,29,12,16,4.90
2021,03,29,12,17,2.00
2021,03,29,12,18,2.80
2021,03,29,12,19,1.80
2021,03,29,12,20,0.50
2021,03,29,12,21,1.20
2021,03,29,12,22,2.10
2021,03,29,12,23,0.90
2021,03,29,12,24,3.00
2021,03,29,12,25,0.40
2021,03,29,12,26,1.50
2021,03,29,12,27,2.30
2021,03,29,12,28,1.50
2021,03,29,12,29,0.90
2021,03,29,12,30,3.90
2021,03,29,12,31,1.70
2021,03,29,12,32,2.40
2021,03,29,12,33,1.50
2021,03,29,12,34,0.60
2021,03,29,12,35,0.90
2021,03,29,12,36,2.10
2021,03,29,12,37,2.70
2021,03,29,12,38,2.30
2021,03,29,12,39,2.60
2021,03,29,12,40,1.80
2021,03,29,12,41,3.00
2021,03,29,12,42,3.60
2021,03,29,12,43,4.70
2021,03,29,12,44,2.80
2021,03,29,12,45,2.20
2021,03,29,12,46,3.50
2021,03,29,12,47,1.30
2021,03,29,12,48,2.30
2021,03,29,12,49,2.60
2021,03,29,12,50,3.20
2021,03,29,12,51,4.10
2021,03,29,12,52,5.90
2021,03,29,12,53,3.10
2021,03,29,12,54,3.00
2021,03,29,12,55,3.10
2021,03,29,12,56,3.10
2021,03,29,12,57,1.50
2021,03,29,12,58,2.40
2021,03,29,12,59,4.00
2021,03,29,13,00,2.90
2021,03,29,13,01,4.10
2021,03,29,13,02,2.40
2021,03,29,13,03,3.50
2021,03,29,13,04,5.10
2021,03,29,13,05,5.10
2021,03,29,13,06,4.30
2021,03,29,13,07,1.00
2021,03,29,13,08,2.20
2021,03,29,13,09,1.60
2021,03,29,13,10,3.10
2021,03,29,13,11,2.90
2021,03,29,13,12,1.20
2021,03,29,13,13,2.30
2021,03,29,13,14,3.60
2021,03,29,13,15,1.20
2021,03,29,13,16,2.70
2021,03,29,13,17,1.50
2021,03,29,13,18,2.00
2021,03,29,13,19,1.90
2021,03,29,13,20,1.90
2021,03,29,13,21,4.40
2021,03,29,13,22,2.50
2021,03,29,13,23,3.30
2021,03,29,13,24,3.60
2021,03,29,13,25,2.80
2021,03,29,13,26,1.80
2021,03,29,13,27,1.60
2021,03,29,13,28,3.00
2021,03,29,13,29,2.80
2021,03,29,13,30,2.10
2021,03,29,13,31,1.80
2021,03,29,13,32,3.50
2021,03,29,13,33,2.40
2021,03,29,13,34,1.40
2021,03,29,13,35,2.70
2021,03,29,13,36,2.70
2021,03,29,13,37,2.20
2021,03,29,13,38,1.50
2021,03,29,13,39,2.20
2021,03,29,13,40,2.80
2021,03,29,13,41,2.40
2021,03,29,13,42,2.00
2021,03,29,13,43,1.60
2021,03,29,13,44,2.20
2021,03,29,13,45,4.50
2021,03,29,13,46,1.90
2021,03,29,13,47,2.30
2021,03,29,13,48,5.50
2021,03,29,13,49,2.60
2021,03,29,13,50,1.50
2021,03,29,13,51,2.60
2021,03,29,13,52,3.90
2021,03,29,13,53,1.80
2021,03,29,13,54,0.30
2021,03,29,13,55,1.70
2021,03,29,13,56,2.60
2021,03,29,13,57,1.80
2021,03,29,13,58,2.20
2021,03,29,13,59,2.30
2021,03,29,14,00,1.70
2021,03,29,14,01,1.20
2021,03,29,14,02,2.50
2021,03,29,14,03,6.60
2021,03,29,14,04,4.80
2021,03,29,14,05,2.20
2021,03,29,14,06,0.90
2021,03,29,14,07,2.20
2021,03,29,14,08,3.50
2021,03,29,14,09,1.40
2021,03,29,14,10,1.30
2021,03,29,14,11,2.50
2021,03,29,14,12,3.10
2021,03,29,14,13,2.70
2021,03,29,14,14,1.80
2021,03,29,14,15,2.60
2021,03,29,14,16,1.90
2021,03,29,14,17,1.20
2021,03,29,14,18,0.50
2021,03,29,14,19,2.00
2021,03,29,14,20,0.90
2021,03,29,14,21,2.70
2021,03,29,14,22,1.80
2021,03,29,14,23,2.50
2021,03,29,14,24,2.80
2021,03,29,14,25,3.50
2021,03,29,14,26,3.10
2021,03,29,14,27,2.50
2021,03,29,14,28,1.90
2021,03,29,14,29,1.80
2021,03,29,14,30,0.50
2021,03,29,14,31,0.90
2021,03,29,14,32,0.50
2021,03,29,14,33,0.60
2021,03,29,14,34,1.00
2021,03,29,14,35,1.30
2021,03,29,14,36,2.50
2021,03,29,14,37,1.90
2021,03,29,14,38,1.20
2021,03,29,14,39,1.80
2021,03,29,14,40,0.40
2021,03,29,14,41,0.10
2021,03,29,14,42,2.40
2021,03,29,14,43,2.10
2021,03,29,14,44,3.50
2021,03,29,14,45,4.30
2021,03,29,14,46,2.70
2021,03,29,14,47,2.80
2021,03,29,14,48,2.10
2021,03,29,14,49,3.90
2021,03,29,14,50,2.40
2021,03,29,14,51,3.10
2021,03,29,14,52,2.60
2021,03,29,14,53,2.90
2021,03,29,14,54,3.30
2021,03,29,14,55,4.90
2021,03,29,14,56,4.10
2021,03,29,14,57,0.30
2021,03,29,14,58,0.70
2021,03,29,14,59,4.10
2021,03,29,15,00,3.60
2021,03,29,15,01,2.70
2021,03,29,15,02,2.30
2021,03,29,15,03,2.10
2021,03,29,15,04,0.80
2021,03,29,15,05,1.60
2021,03,29,15,06,1.20
2021,03,29,15,07,3.20
2021,03,29,15,08,3.40
2021,03,29,15,09,3.80
2021,03,29,15,10,1.90
2021,03,29,15,11,1.60
2021,03,29,15,12,0.20
2021,03,29,15,13,2.60
2021,03,29,15,14,1.70
2021,03,29,15,15,2.50
2021,03,29,15,16,1.20
2021,03,29,15,17,2.10
2021,03,29,15,18,1.20
2021,03,29,15,19,1.50
2021,03,29,15,20,2.30
2021,03,29,15,21,2.80
2021,03,29,15,22,2.90
2021,03,29,15,23,0.50
2021,03,29,15,24,1.50
2021,03,29,15,25,0.80
2021,03,29,15,26,0.20
2021,03,29,15,27,0.00
2021,03,29,15,28,0.10
2021,03,29,15,29,3.20
2021,03,29,15,30,0.60
2021,03,29,15,31,0.20
2021,03,29,15,32,0.50
2021,03,29,15,33,1.60
2021,03,29,15,34,1.00
2021,03,29,15,35,1.80
2021,03,29,15,36,1.10
2021,03,29,15,37,0.40
2021,03,29,15,38,0.90
2021,03,29,15,39,0.50
2021,03,29,15,40,0.30
2021,03,29,15,41,1.00
2021,03,29,15,42,1.20
2021,03,29,15,43,0.60
2021,03,29,15,44,0.20
2021,03,29,15,45,0.30
2021,03,29,15,46,0.20
2021,03,29,15,47,0.00
2021,03,29,15,48,0.20
2021,03,29,15,49,0.10
2021,03,29,15,50,0.70
2021,03,29,15,51,2.00
2021,03,29,15,52,0.50
2021,03,29,15,53,0.30
2021,03,29,15,54,0.40
2021,03,29,15,55,0.30
2021,03,29,15,56,0.60
2021,03,29,15,57,1.00
2021,03,29,15,58,0.40
2021,03,29,15,59,1.30
2021,03,29,16,00,0.20
2021,03,29,16,01,0.80
2021,03,29,16,02,2.30
2021,03,29,16,03,1.90
2021,03,29,16,04,0.50
2021,03,29,16,05,0.60
2021,03,29,16,06,0.00
2021,03,29,16,07,0.40
2021,03,29,16,08,0.50
2021,03,29,16,09,0.10
2021,03,29,16,10,0.60
2021,03,29,16,11,0.20
2021,03,29,16,12,0.00
2021,03,29,16,13,0.20
2021,03,29,16,14,0.60
2021,03,29,16,15,1.50
2021,03,29,16,16,0.30
2021,03,29,16,17,0.40
2021,03,29,16,18,0.10
2021,03,29,16,19,0.20
2021,03,29,16,20,0.40
2021,03,29,16,21,0.10
2021,03,29,16,22,0.00
2021,03,29,16,23,0.10
2021,03,29,16,24,0.10
2021,03,29,16,25,1.10
2021,03,29,16,26,2.40
2021,03,29,16,27,2.10
2021,03,29,16,28,1.50
2021,03,29,16,29,3.10
2021,03,29,16,30,1.40
2021,03,29,16,31,0.00
2021,03,29,16,32,2.50
2021,03,29,16,33,1.80
2021,03,29,16,34,1.00
2021,03,29,16,35,0.10
2021,03,29,16,36,0.70
2021,03,29,16,37,2.60
2021,03,29,16,38,5.20
2021,03,29,16,39,1.20
2021,03,29,16,40,0.40
2021,03,29,16,41,1.00
2021,03,29,16,42,3.90
2021,03,29,16,43,3.70
2021,03,29,16,44,0.60
2021,03,29,16,45,0.40
2021,03,29,16,46,0.00
2021,03,29,16,47,0.00
2021,03,29,16,48,0.00
2021,03,29,16,49,0.00
2021,03,29,16,50,0.10
2021,03,29,16,51,0.10
2021,03,29,16,52,0.20
2021,03,29,16,53,0.20
2021,03,29,16,54,0.50
2021,03,29,16,55,0.00
2021,03,29,16,56,0.00
2021,03,29,16,57,0.80
2021,03,29,16,58,1.00
2021,03,29,16,59,0.20
2021,03,29,17,00,0.10
2021,03,29,17,01,0.10
2021,03,29,17,02,0.20
2021,03,29,17,03,2.00
2021,03,29,17,04,1.00
2021,03,29,17,05,0.10
2021,03,29,17,06,0.00
2021,03,29,17,07,0.00
2021,03,29,17,08,0.70
2021,03,29,17,09,1.20
2021,03,29,17,10,0.50
2021,03,29,17,11,0.30
2021,03,29,17,12,0.50
2021,03,29,17,13,1.60
2021,03,29,17,14,0.10
2021,03,29,17,15,0.20
2021,03,29,17,16,0.20
2021,03,29,17,17,0.40
2021,03,29,17,18,0.50
2021,03,29,17,19,0.70
2021,03,29,17,20,1.80
2021,03,29,17,21,0.60
2021,03,29,17,22,1.10
2021,03,29,17,23,1.20
2021,03,29,17,24,1.40
2021,03,29,17,25,1.50
2021,03,29,17,26,1.50
2021,03,29,17,27,0.50
2021,03,29,17,28,0.40
2021,03,29,17,29,0.50
2021,03,29,17,30,0.20
2021,03,29,17,31,0.10
2021,03,29,17,32,0.30
2021,03,29,17,33,2.20
2021,03,29,17,34,1.10
2021,03,29,17,35,3.00
2021,03,29,17,36,3.60
2021,03,29,17,37,0.60
2021,03,29,17,38,4.00
2021,03,29,17,39,1.50
2021,03,29,17,40,1.80
2021,03,29,17,41,0.80
2021,03,29,17,42,2.10
2021,03,29,17,43,1.50
2021,03,29,17,44,1.90
2021,03,29,17,45,1.00
2021,03,29,17,46,0.90
2021,03,29,17,47,1.00
2021,03,29,17,48,0.60
2021,03,29,17,49,1.50
2021,03,29,17,50,1.10
2021,03,29,17,51,1.60
2021,03,29,17,52,1.10
2021,03,29,17,53,1.40
2021,03,29,17,54,0.40
2021,03,29,17,55,0.20
2021,03,29,17,56,0.60
2021,03,29,17,57,0.50
2021,03,29,17,58,1.20
2021,03,29,17,59,1.00
2021,03,29,18,00,0.50
2021,03,29,18,01,0.70
2021,03,29,18,02,0.20
2021,03,29,18,03,0.30
2021,03,29,18,04,0.50
2021,03,29,18,05,0.30